STARLINK-2140, 47730

Orbit data source: Space-Track

STARLINK-2140, 47730 is a payload satellite owned by SpaceX/Seattle (US) in LEO that was launched on Thu, 04 Mar 2021 UTC via an FALCON 9 launch vehicle from the Air Force Eastern Test Range (AFETR). Payload-class satellites include a variety of spacecraft equipped with specific instruments for various scientific and technological missions. These include communications satellites like Starlink; space stations such as the ISS; scientific satellites like the Hubble; Earth observation satellites from companies like Planet Labs, Umbra, and HawkEye 360; GPS; miniature CubeSats for education and research; and military/defense satellites.

Loading next visibility...
Identifier
47730, 2021-017J
Orbit
LEO
Country
Flag of USUS
Related business
Manufacturer
SpaceX/Seattle
Mission
Operational Commercial Communications
Bus & Motor
STARLINK, Unknown motor
Mass
260 kg wet, ~248 kg dry
Launch date (UTC)
2021-03-04 (5 years ago)
Launch vehicle
FALCON 9
Launch site
Air Force Eastern Test Range (AFETR)
Object type
Payload
Rocket body
Debris
Shape & HBR
Box + 1 Pan, 10.1 m
Radar Cross Section
13.562 m², Large (>1 m²)

Expand to show TLE details & history
Last TLE update: 10 hours ago

TLE from 10 hours ago
0 STARLINK-2140
1 47730U 21017J   25347.01258673 -.00001726  00000-0 -97045-4 0  9992
2 47730  53.0536 245.7355 0001370  86.9923 273.1223 15.06389896264595
Epoch: 2025-12-13T00:18Z
TLE epoch observation values (Epoch: 2025-12-13T00:18:07.493Z)
Latitude
Longitude
159.25831°
Altitude
548.07 km
Speed
7.589 km/s
True Right ascension
16h 22m 56s
True Declination
0° 00' 00"
Sunlit
Object was in daylight at epoch
Visualization orbit readout
Latitude
Unknown
Longitude
Unknown
Altitude
Unknown
Speed
Unknown
Apparent Right ascension
Unknown
Apparent Declination
Unknown
Sunlit
N/A
Visualization observer readout
Local Sidereal Time
09:13:59
Azimuth
Unknown
Elevation
Unknown
Doppler factor
Unknown
Orbital elements
Apogee altitude
548.462 km
Perigee altitude
546.565 km
Semi-major axis
6,925.65 km
Eccentricity
0.00014
Inclination
53.0536°
RAAN
245.7355°
Arg. of periapsis
86.9923°
True anomaly
273.10662°
Mean anomaly
273.1223°
Eccentric anomaly
273.11446°
Mean motion
3.76576 °/min
Orbital period
95.6 mins
BSTAR
-0.000097045
Loading maneuver chart data...
Computing Atmospheric mass density...
Loading historical data...
Loading historical data...
Loading historical data...
Loading historical data...
Loading historical data...
Loading historical data...
Loading historical data...

Documentation

Showing up to 5 results
|